Location: Proctor
(47.8934°N, 114.3048°W)
Time: 05:29:32
(UTC+00:00)

ISS - Pass Details

Date: 25 May 2024
Orbit: 409 x 421 km, 51.6° (Epoch: 13 June)

Event Time Altitude Azimuth Distance (km) Brightness Sun altitude
Rises 04:50:25 0° 291° (WNW) 2,375 1.2 -11.9°
Reaches altitude 10° 04:52:37 10° 283° (WNW) 1,505 -0.1 -12.1°
Maximum altitude 04:55:46 37° 214° (SW) 666 -2.9 -12.5°
Enters shadow 04:57:26 22° 160° (SSE) 975 -2.5 -12.6°
